Location: Sungai Igah
(2.7333°N, 114.2500°E)
Time: 14:41:34
(UTC+00:00)

YAOGAN 6 - Pass Details

Date: 14 June 2021
Orbit: 464 x 502 km, 97.1° (Epoch: 27 July)

Event Time Altitude Azimuth Distance (km) Brightness Sun altitude
Rises 21:27:55 0° 9° (N) 2,479 6.7 -11.6°
Reaches altitude 10° 21:29:57 10° 8° (N) 1,606 5.6 -11.1°
Maximum altitude 21:33:23 81° 282° (WNW) 473 2.4 -10.4°
Drops below altitude 10° 21:36:50 10° 193° (SSW) 1,614 4.9 -9.6°
Sets 21:38:53 0° 192° (SSW) 2,494 5.8 -9.1°
